[[{"header":{"parameterUnit":"m.s-1","parameterCategory":1,"la1":30.2991,"la2":30.254,"lo1":-89.0895,"lo2":-89.0444,"dy":0.0017,"dx":0.0017,"nx":28,"ny":28,"refTime":"2025-08-15T03:00:00:Z","depth":0,"parameterNumber":2,"parameterNumberName":"U-component_of_WINDS"},"data":[0,0,0,0,0,0,0,0,0,0,0,0,0,0,0,0,0,0,0,0,0,0,0,0,0,0,0,0,0,0,0,0,0,0,0,0,0,0,0,0,0,0,0,0,0,0,0,0,0,0,0,0,0,0,0,0,0,0,1.5666,1.5668,0,1.5838,1.584,1.5842,1.5901,1.5901,1.59,1.5899,1.6077,1.6082,1.6087,0,0,0,0,0,0,0,0,0,0,0,0,0,1.539,1.5395,1.5666,1.5668,1.5671,1.5838,1.584,1.5843,1.5901,1.5901,1.59,1.5899,1.6075,1.6081,1.6088,0,0,0,0,0,0,0,0,0,0,0,0,0,1.5531,1.5397,1.5666,1.572,1.5727,1.5837,1.584,1.5843,1.5902,1.5901,1.59,1.5899,1.6073,1.6081,1.6089,1.6158,0,0,1.6113,1.6117,0,0,0,0,0,0,0,0,1.5523,1.5541,1.571,1.5717,1.5724,1.5847,1.5808,1.5949,1.5902,1.5835,1.5899,1.5898,1.6001,1.6015,1.605,1.6167,1.6174,1.6114,1.6119,1.6122,1.6124,0,0,0,0,0,0,0,1.5513,1.5534,1.5734,1.5712,1.5721,1.5736,1.5755,1.5835,1.5922,1.5841,1.5846,1.5865,1.6005,1.6042,1.6054,1.6177,1.6114,1.6121,1.6126,1.6129,1.636,1.6361,0,0,0,0,0,0,1.5494,1.5525,1.5729,1.5739,1.5619,1.5742,1.5763,1.5809,1.5921,1.5937,1.5866,1.5867,1.6029,1.6045,1.6061,1.615,1.6122,1.613,1.6134,1.6358,1.636,1.6361,0,0,0,0,0,0,1.5488,1.5512,1.5722,1.5634,1.5662,1.5748,1.5799,1.5813,1.5849,1.594,1.5956,1.5887,1.6028,1.6049,1.6134,1.6156,1.6133,1.6141,1.6357,1.6359,1.6361,1.6328,0,0,0,0,0,0,1.548,1.5509,1.5536,1.5634,1.5666,1.5791,1.58,1.5817,1.5863,1.5866,1.5964,1.598,1.6029,1.6121,1.6141,1.6167,1.6147,1.6355,1.6358,1.636,1.6327,1.6328,1.6329,0,0,0,0,0,1.547,1.552,1.5537,1.5561,1.5702,1.5793,1.5811,1.5867,1.5865,1.5893,1.5951,1.5976,1.6151,1.6129,1.6153,1.6181,1.6354,1.6357,1.636,1.6326,1.6328,1.6329,0,0,0,0,0,0,1.5424,1.5534,1.5554,1.5638,1.5705,1.5802,1.584,1.5866,1.5936,1.5937,1.6003,1.6025,1.6104,1.6151,1.6125,1.6254,1.6254,1.6261,1.622,1.6223,1.6224,1.621,1.6154,0,0,0,0,0,1.5423,1.5487,1.5581,1.5646,1.5678,1.5753,1.5795,1.5831,1.5904,1.5933,1.5997,1.6067,1.6138,1.6183,1.6253,1.6334,1.6356,1.6365,1.6366,1.6367,1.6373,1.6419,1.6424,1.6371,1.6371,1.6371,0,0,1.5423,1.5491,1.5528,1.5638,1.5695,1.576,1.5777,1.5845,1.5894,1.5944,1.6027,1.6076,1.6159,1.6241,1.6281,1.6283,1.6392,1.637,1.637,1.6376,1.6422,1.6427,1.6431,1.6373,1.6373,1.6372,0,0,1.5456,1.5514,1.5575,1.5631,1.5716,1.5765,1.5779,1.5873,1.5907,1.5991,1.603,1.6089,1.6209,1.6266,1.6311,1.6365,1.6391,1.6386,1.6392,1.6436,1.644,1.6444,1.6463,1.6469,1.6392,1.6391,1.6391,0,1.5445,1.5544,1.5602,1.5668,1.5716,1.5763,1.5825,1.5877,1.598,1.6012,1.6013,1.6164,1.6223,1.6319,1.6332,1.6367,1.6386,1.6375,1.6434,1.6439,1.6444,1.6462,1.6469,1.639,1.639,1.639,1.6391,0,1.5527,1.5595,1.5633,1.5732,1.5783,1.5847,1.5914,1.596,1.5992,1.6041,1.6126,1.6199,1.6284,1.6309,1.6342,1.6411,1.6409,1.6421,1.6422,1.6446,1.6465,1.6473,1.6388,1.6389,1.6389,1.639,0,0,1.5535,1.5665,1.5678,1.5723,1.582,1.5874,1.594,1.6022,1.606,1.613,1.6186,1.6286,1.6298,1.6349,1.6388,1.6427,1.6464,1.6435,1.6438,1.6437,1.6544,1.6534,1.6541,1.6482,1.6484,1.6485,1.6537,0,1.5581,1.57,1.5753,1.5848,1.5912,1.5958,1.6015,1.6081,1.6128,1.6189,1.6242,1.6312,1.6322,1.6353,1.6393,1.6451,1.6486,1.6448,1.6536,1.6538,1.6513,1.6551,1.6541,1.6586,1.6544,1.6546,1.6547,0,1.5649,1.5719,1.5819,1.5909,1.5938,1.5988,1.6068,1.6126,1.6201,1.6233,1.6289,1.6327,1.6397,1.6393,1.6492,1.6464,1.6503,1.6537,1.654,1.655,1.6543,1.6562,1.6602,1.6608,1.6559,1.6558,1.6557,0,1.5645,1.5764,1.5839,1.5877,1.5983,1.6017,1.6063,1.6137,1.6183,1.6253,1.6284,1.6361,1.6403,1.6463,1.652,1.6512,1.6613,1.6613,1.6641,1.664,1.666,1.6658,1.6707,1.6686,1.6686,1.6686,1.6685,0,1.569,1.575,1.5839,1.5885,1.5953,1.6015,1.6081,1.613,1.6196,1.6253,1.6298,1.635,1.6423,1.6485,1.653,1.6605,1.6624,1.6651,1.6663,1.6647,1.6644,1.6674,1.6672,1.6687,1.6687,1.6687,1.6686,0,1.5696,1.5759,1.5844,1.5937,1.5962,1.6008,1.6088,1.6135,1.6185,1.6256,1.6276,1.6354,1.6429,1.6492,1.6591,1.6622,1.6699,1.6712,1.6673,1.6679,1.6703,1.6699,1.6772,1.6784,1.6755,1.6755,1.6755,0,1.5721,1.5768,1.5866,1.5907,1.5952,1.6018,1.6065,1.6127,1.6174,1.6264,1.63,1.6378,1.6443,1.6561,1.6626,1.6702,1.6718,1.6738,1.6729,1.6712,1.6718,1.6714,1.6719,1.6738,1.6738,1.6738,1.6738,0,1.5757,1.5785,1.5851,1.5928,1.5983,1.6046,1.6111,1.6142,1.6216,1.6267,1.6344,1.6395,1.6495,1.6572,1.6654,1.6702,1.6733,1.674,1.6751,1.6735,1.671,1.6724,1.6674,1.6738,1.6738,1.6738,1.6738,1.6738,1.5773,1.5817,1.5893,1.5965,1.602,1.6079,1.6127,1.6183,1.6248,1.6334,1.6367,1.6445,1.652,1.6633,1.6681,1.6744,1.6748,1.6763,1.6767,1.6769,1.6767,1.67,1.6759,1.6759,1.6759,1.6759,1.6759,0,1.5811,1.5862,1.5928,1.6017,1.6073,1.6097,1.6169,1.6215,1.6283,1.635,1.6413,1.6501,1.6576,1.6647,1.6725,1.6761,1.6777,1.678,1.6777,1.6788,1.6759,1.6742,1.6765,1.6765,1.6765,1.6765,1.6765,1.6765,1.5838,1.5913,1.595,1.6053,1.6104,1.6181,1.622,1.6275,1.6328,1.6424,1.6486,1.6532,1.66,1.6684,1.6753,1.6772,1.6799,1.6797,1.682,1.6791,1.679,1.6789,1.6773,1.6803,1.6803,1.6844,1.6844,1.6845]},{"header":{"parameterUnit":"m.s-1","parameterCategory":1,"la1":30.2991,"la2":30.254,"lo1":-89.0895,"lo2":-89.0444,"dy":0.0017,"dx":0.0017,"nx":28,"ny":28,"refTime":"2025-08-15T03:00:00:Z","depth":0,"parameterNumber":3,"parameterNumberName":"V-component_of_WINDS"},"data":[0,0,0,0,0,0,0,0,0,0,0,0,0,0,0,0,0,0,0,0,0,0,0,0,0,0,0,0,0,0,0,0,0,0,0,0,0,0,0,0,0,0,0,0,0,0,0,0,0,0,0,0,0,0,0,0,0,0,3.4841,3.4841,0,3.4814,3.4814,3.4814,3.4811,3.4811,3.4812,3.4812,3.4781,3.478,3.4779,0,0,0,0,0,0,0,0,0,0,0,0,0,3.4887,3.4886,3.4841,3.4841,3.4841,3.4814,3.4814,3.4813,3.4811,3.4811,3.4812,3.4812,3.4782,3.478,3.4779,0,0,0,0,0,0,0,0,0,0,0,0,0,3.4864,3.4886,3.4842,3.4836,3.4836,3.4814,3.4814,3.4813,3.4811,3.4811,3.4812,3.4812,3.4782,3.478,3.4779,3.476,0,0,3.4774,3.4773,0,0,0,0,0,0,0,0,3.4866,3.4863,3.4837,3.4837,3.4836,3.4816,3.4819,3.4795,3.4811,3.482,3.4812,3.4812,3.4792,3.479,3.4784,3.4758,3.4757,3.4774,3.4773,3.4772,3.4772,0,0,0,0,0,0,0,3.4867,3.4864,3.4831,3.4837,3.4836,3.4834,3.4831,3.4814,3.4804,3.4819,3.4819,3.4816,3.4792,3.4785,3.4783,3.4757,3.4774,3.4772,3.4771,3.4771,3.4711,3.471,0,0,0,0,0,0,3.487,3.4865,3.4831,3.483,3.4852,3.4833,3.483,3.4822,3.4804,3.4802,3.4816,3.4816,3.4788,3.4785,3.4782,3.4757,3.4772,3.477,3.477,3.4711,3.4711,3.471,0,0,0,0,0,0,3.4871,3.4867,3.4833,3.4847,3.4843,3.4832,3.4823,3.4821,3.4815,3.4802,3.4799,3.4811,3.4788,3.4784,3.4765,3.4756,3.477,3.4768,3.4712,3.4711,3.471,3.4707,0,0,0,0,0,0,3.4873,3.4868,3.4862,3.4847,3.4842,3.4817,3.4823,3.4821,3.4812,3.4812,3.4797,3.4794,3.4788,3.4767,3.4763,3.4754,3.4767,3.4713,3.4712,3.4711,3.4708,3.4706,3.4704,0,0,0,0,0,3.4874,3.4862,3.4861,3.4857,3.4834,3.4817,3.4814,3.4808,3.4812,3.4804,3.4795,3.4795,3.4757,3.4765,3.4761,3.475,3.4713,3.4712,3.4711,3.4709,3.4706,3.4705,0,0,0,0,0,0,3.4875,3.486,3.4859,3.4842,3.4831,3.4817,3.4808,3.4806,3.4793,3.4793,3.4786,3.4782,3.4762,3.4754,3.4764,3.4729,3.4735,3.4733,3.4735,3.4733,3.4732,3.4734,3.4766,0,0,0,0,0,3.4873,3.4862,3.4849,3.4834,3.4829,3.4819,3.4811,3.4807,3.4795,3.479,3.478,3.4767,3.4752,3.4742,3.4728,3.4706,3.4701,3.4697,3.4695,3.4694,3.4692,3.4677,3.4674,3.4706,3.4706,3.4706,0,0,3.487,3.486,3.4853,3.4834,3.4825,3.4811,3.4815,3.4801,3.479,3.4788,3.4769,3.476,3.4745,3.4724,3.4714,3.4717,3.4682,3.4692,3.4691,3.469,3.4675,3.4672,3.467,3.4705,3.4705,3.4705,0,0,3.4856,3.4848,3.4834,3.4825,3.4811,3.4804,3.48,3.4786,3.478,3.4761,3.4758,3.4744,3.4719,3.4707,3.4698,3.4677,3.4674,3.4672,3.4663,3.4649,3.4646,3.4644,3.4634,3.4631,3.467,3.467,3.467,0,3.4852,3.4833,3.4827,3.4813,3.4804,3.4801,3.4785,3.4776,3.4758,3.4751,3.4754,3.4721,3.471,3.4685,3.468,3.4673,3.4667,3.4674,3.4647,3.4645,3.4643,3.4633,3.463,3.467,3.467,3.467,3.467,0,3.4829,3.4815,3.4806,3.4788,3.4778,3.4763,3.4753,3.4743,3.4739,3.4731,3.471,3.4697,3.4679,3.4673,3.4669,3.4646,3.4648,3.4649,3.4655,3.4639,3.463,3.4627,3.4669,3.4669,3.4669,3.4669,0,0,3.4816,3.4794,3.479,3.4781,3.4764,3.4753,3.4737,3.4719,3.471,3.4696,3.4681,3.4659,3.4659,3.4649,3.4643,3.4631,3.4611,3.4633,3.4633,3.4628,3.4582,3.458,3.4577,3.461,3.4609,3.4609,3.4583,0,3.4799,3.4772,3.4765,3.4741,3.4727,3.4722,3.4707,3.4694,3.4686,3.4671,3.4661,3.4644,3.4647,3.4641,3.4628,3.4617,3.4602,3.4618,3.4594,3.4593,3.4597,3.4572,3.4571,3.4547,3.4579,3.4579,3.4578,0,3.4776,3.4762,3.4737,3.4719,3.4713,3.4701,3.4682,3.4669,3.4653,3.4647,3.4634,3.4629,3.461,3.4616,3.4588,3.4599,3.4588,3.4581,3.4579,3.4576,3.4584,3.4567,3.454,3.4536,3.4573,3.4574,3.4574,0,3.4768,3.4742,3.4723,3.4716,3.4695,3.4686,3.4677,3.4661,3.465,3.4634,3.4626,3.4607,3.4596,3.4581,3.457,3.4576,3.4541,3.4548,3.4534,3.4534,3.4527,3.4527,3.4496,3.4522,3.4522,3.4522,3.4522,0,3.4749,3.4733,3.4719,3.4707,3.4688,3.4679,3.466,3.465,3.4636,3.462,3.4615,3.46,3.4587,3.4569,3.456,3.4537,3.4532,3.4525,3.4523,3.4525,3.4526,3.4518,3.4519,3.4521,3.4521,3.4521,3.4521,0,3.4737,3.4727,3.4705,3.4687,3.4682,3.4669,3.4652,3.4639,3.4629,3.4609,3.4604,3.4589,3.4567,3.4555,3.4528,3.4522,3.4495,3.4494,3.4501,3.45,3.4486,3.4487,3.4448,3.4441,3.4472,3.4472,3.4471,0,3.4726,3.4713,3.4693,3.4683,3.4673,3.4657,3.4645,3.4635,3.4622,3.4601,3.459,3.4569,3.4551,3.4517,3.4502,3.4481,3.4478,3.4466,3.4475,3.4477,3.4476,3.4476,3.4474,3.4464,3.4464,3.4464,3.4464,0,3.4706,3.4701,3.4685,3.4667,3.4653,3.4638,3.4623,3.4614,3.46,3.4586,3.4565,3.4551,3.4523,3.4501,3.4478,3.4466,3.4461,3.4461,3.4456,3.4458,3.4462,3.4458,3.4495,3.4462,3.4462,3.4462,3.4462,3.4462,3.4693,3.4681,3.4664,3.4646,3.4633,3.4618,3.4604,3.4593,3.4575,3.4552,3.4546,3.4523,3.4503,3.4472,3.4459,3.4439,3.4441,3.4435,3.4433,3.4431,3.443,3.4465,3.4435,3.4435,3.4435,3.4435,3.4435,0,3.4672,3.466,3.4644,3.4622,3.4607,3.4605,3.4587,3.4574,3.4554,3.4537,3.4519,3.4492,3.447,3.4452,3.4429,3.4416,3.4413,3.441,3.441,3.4407,3.4431,3.4436,3.4412,3.4412,3.4412,3.4412,3.4412,3.4412,3.4659,3.4637,3.463,3.4601,3.4589,3.4567,3.4557,3.4542,3.4528,3.4499,3.448,3.4469,3.4451,3.4425,3.4403,3.4398,3.4389,3.4386,3.4381,3.4403,3.4406,3.4408,3.4413,3.4385,3.4385,3.4358,3.4358,3.4358]}]]